Location: Allentsteig
(48.6833°N, 15.3167°E)
Time: 22:18:12
(UTC+00:00)

USA 238 DEB - Pass Details

Date: 22 January 2021
Orbit: 995 x 1217 km, 63.4° (Epoch: 07 March)

Event Time Altitude Azimuth Distance (km) Brightness Sun altitude
Rises 04:06:47 0° 170° (S) 3,711 6.7 -25.0°
Reaches altitude 10° 04:09:59 10° 155° (SSE) 2,784 6.2 -24.5°
Maximum altitude 04:14:38 21° 109° (ESE) 2,138 6.1 -23.7°
Drops below altitude 10° 04:19:24 10° 63° (ENE) 2,881 6.8 -22.9°
Sets 04:22:46 0° 49° (NE) 3,880 7.3 -22.4°
